Weather History for EGVN - November, 2013

Change the Weather History Date:

Tuesday, November 5, 2013

  Actual Average Record
Temperature  
Mean Temperature 44 °F -  
Max Temperature 53 °F 48 °F 59 °F (2010)
Min Temperature 34 °F 36 °F 32 °F (2007)
Degree Days  
Heating Degree Days 22    
Moisture  
Dew Point 42 °F    
Average Humidity 85    
Maximum Humidity 100    
Minimum Humidity 61    
Precipitation  
Precipitation 0.08 in - - ()
Sea Level Pressure  
Sea Level Pressure 29.35 in    
Wind  
Wind Speed 5 mph ()    
Max Wind Speed 20 mph    
Max Gust Speed 32 mph    
Visibility 6.4 miles    
Events Rain    
Averages and records for this station are not official NWS values.
T = Trace of Precipitation, MM = Missing Value Source: Averaged Metar Reports

Daily Weather History Graph

Daily Weather History Graph

Search for Another Location

Airport or City:

Trip Planner

Search our weather history database for the weather conditions in past years. The results will help you decide how hot, cold, wet, or windy it might be!

Date:

Astronomy

Nov. 05, 2013 Rise Set
Actual Time 7:07 AM GMT 4:31 PM GMT
Civil Twilight 6:31 AM GMT 5:07 PM GMT
Nautical Twilight 5:51 AM GMT 5:47 PM GMT
Astronomical Twilight 5:12 AM GMT 6:26 PM GMT
Moon 9:17 AM GMT (11/5) 6:07 PM GMT (11/5)
Length of Visible Light 10h 35m
Length of Day
9h 23m
Waxing Crescent, 5% of the Moon is Illuminated
Nov 5
Waxing Crescent
Nov 10
First Quarter
Nov 17
Full
Nov 25
Last Quarter
Dec 3
New

Hourly Weather History & Observations

Time (GMT) Temp. Windchill Dew Point Humidity Pressure Visibility Wind Dir Wind Speed Gust Speed Precip Events Conditions
12:00 AM 36 °F - 35 °F 94% 29.48 in 12 mi Calm Calm - -   Mostly Cloudy
12:50 AM 35.6 °F - 33.8 °F 93% 29.44 in - NNE 1.2 mph - N/A   Clear
1:50 AM 37.4 °F - 35.6 °F 93% 29.39 in 6.2 mi East 2.3 mph - N/A Rain Light Rain
2:50 AM 37.4 °F - 37.4 °F 100% 29.36 in 6.2 mi East 2.3 mph - N/A Rain Light Rain
3:00 AM 38 °F - 37 °F 95% 29.39 in 11 mi East 2.3 mph - - Rain Light Rain
3:20 AM 39.2 °F 37.0 °F 39.2 °F 100% 29.36 in 3.7 mi East 3.5 mph - N/A Rain Rain
3:50 AM 41.0 °F - 39.2 °F 93% 29.33 in 2.5 mi East 2.3 mph - N/A Rain Rain
4:24 AM 41.0 °F - 41.0 °F 100% 29.33 in 6.2 mi ENE 2.3 mph - N/A   Overcast
4:50 AM 41.0 °F - 41.0 °F 100% 29.30 in 6.2 mi Calm Calm - N/A   Overcast
5:50 AM 44.6 °F - 44.6 °F 100% 29.30 in 6.2 mi SW 1.2 mph - N/A   Overcast
6:00 AM 44 °F - 44 °F 98% 29.31 in 12 mi SW 1.2 mph - -   Partly Cloudy
6:50 AM 46.4 °F - 44.6 °F 93% 29.27 in 6.2 mi SW 2.3 mph - N/A   Mostly Cloudy
7:50 AM 48.2 °F - 46.4 °F 93% 29.27 in 5.0 mi SW 4.6 mph - N/A Rain Light Rain
8:17 AM 48.2 °F - 48.2 °F 100% 29.27 in 5.0 mi SW 5.8 mph - N/A Rain Rain
8:50 AM 48.2 °F - 48.2 °F 100% 29.24 in 6.2 mi SW 4.6 mph - N/A Rain Rain
9:00 AM 49 °F - 47 °F 92% 29.26 in 6 mi SW 4.6 mph - - Rain Rain
9:24 AM 48.2 °F - 48.2 °F 100% 29.24 in 5.0 mi WSW 5.8 mph - N/A Rain Rain
9:40 AM 48.2 °F - 48.2 °F 100% 29.24 in 6.2 mi SW 8.1 mph - N/A   Mostly Cloudy
9:50 AM 50.0 °F - 48.2 °F 94% 29.24 in 6.2 mi SSW 6.9 mph - N/A   Overcast
10:50 AM 51.8 °F - 48.2 °F 88% 29.24 in 6.2 mi WSW 8.1 mph - N/A   Mostly Cloudy
11:50 AM 53.6 °F - 44.6 °F 72% 29.27 in 6.2 mi West 15.0 mph 28.8 mph N/A   Scattered Clouds
12:00 PM 53 °F - 45 °F 66% 29.27 in 25 mi West 15.0 mph - -   Partly Cloudy
12:50 PM 51.8 °F - 42.8 °F 71% 29.30 in 6.2 mi West 19.6 mph 32.2 mph N/A   Mostly Cloudy
1:50 PM 51.8 °F - 41.0 °F 67% 29.30 in 6.2 mi WNW 16.1 mph 27.6 mph N/A   Scattered Clouds
2:50 PM 51.8 °F - 41.0 °F 67% 29.33 in 6.2 mi WNW 13.8 mph - N/A   Mostly Cloudy
3:00 PM 51 °F - 42 °F 61% 29.35 in 22 mi WNW 13.8 mph - -   Scattered Clouds
3:50 PM 50.0 °F - 42.8 °F 76% 29.36 in 6.2 mi West 13.8 mph - N/A Rain Light Rain
4:50 PM 50.0 °F - 42.8 °F 76% 29.39 in 6.2 mi West 8.1 mph - N/A   Mostly Cloudy
5:50 PM 50.0 °F - 41.0 °F 71% 29.42 in 6.2 mi West 11.5 mph - N/A   Mostly Cloudy
6:00 PM 49 °F - 41 °F 64% 29.42 in 22 mi West 11.5 mph - -   Partly Cloudy
6:50 PM 48.2 °F - 41.0 °F 76% 29.42 in - West 9.2 mph - N/A   Clear
7:50 PM 48.2 °F - 41.0 °F 76% 29.44 in - West 5.8 mph - N/A   Clear
8:50 PM 46.4 °F 44.3 °F 41.0 °F 81% 29.44 in - SW 4.6 mph - N/A   Clear
9:00 PM 47 °F - 41 °F 74% 29.47 in 22 mi SW 4.6 mph - -   Scattered Clouds
9:50 PM 48.2 °F - 41.0 °F 76% 29.47 in - WSW 6.9 mph - N/A   Clear
10:50 PM 48.2 °F - 41.0 °F 76% 29.47 in - WSW 9.2 mph - N/A   Clear
11:50 PM 48.2 °F - 41.0 °F 76% 29.50 in - WSW 8.1 mph - N/A   Clear